Zurück zum Katalog

KHORS NO. 1

AktivMilitärSSO
NORAD 57188·PAYLOAD·🇷🇺 Russia
Dieser Satellitenname wurde noch nicht durch offizielle Quellen bestätigt.

Gestartet Jun 27, 2023 von Vostochny Cosmodrome

Loading…

Nächste Überflüge (nächste 24 Stunden)

TLE

AktuellSource: Space-Track

Epoche: Sep 14, 2026, 22:15 UTC

1 57188U 23091Y   26257.92738246  .00008812  00000-0  32419-3 0  9998
2 57188  97.4972 322.0348 0009763 130.0687 230.1410 15.28071045178012

Verfolge KHORS NO. 1 in Echtzeit mit AllMySat

Download on the App Store